OSLO/GARDERMOEN current weather conditions

sailwx.info

Wind from 010 at 7 knots

Air temperature -0.0° C
Visibility: greater than 5.4 NM
Dewpoint -2.0° C

Last reported at 2017-Feb-21 08:20 UTC.
Time now 2017-Feb-21 10:06 UTC

Location: N 60°12' E 011°05'.
View on Google Maps.

See reports from other nearby stations

  
Tides and Currents Weather Stations Pressure Air Temp Water Temp Dewpoint Dewpoint Depression Visibility Wind Speed Wind Dir Waves Ship Positions
date/time (UTC)wind fromknots sea level pressurealtimeterstation pressurevisibilityair tempwater tempwave heightnotes
2017-Feb-21 08:20 010 7 5.4-0.0
2017-Feb-21 07:50 360 6 5.4-0.0 Showers in the vicinity.
2017-Feb-21 07:20 360 7 5.4-0.0 Showers in the vicinity.
2017-Feb-21 06:50 350 8 3.8-0.0 Light drizzle.
2017-Feb-21 06:20 350 6 5.4 1.0
2017-Feb-21 05:50 350 7 5.4-0.0
2017-Feb-21 05:20 360 8 3.8-2.0
2017-Feb-21 04:50 2.7-2.0 Mist.
2017-Feb-21 04:20 010 1 3.2-2.0 Patches of fog.
2017-Feb-21 03:50 2.7-2.0 Mist.
2017-Feb-21 03:20 200 2 2.7-2.0 Mist.
2017-Feb-21 02:50 3.8-2.0
2017-Feb-21 02:20 3.8-1.0
2017-Feb-21 01:50 4.9-1.0
2017-Feb-21 01:20 4.3-1.0
2017-Feb-21 00:50 4.9-0.0 Showers in the vicinity.
2017-Feb-21 00:20 5.4-0.0 Light drizzle snow.
2017-Feb-20 23:50 5.4-0.0 Light drizzle snow.
2017-Feb-20 23:20 030 1 5.4-0.0
2017-Feb-20 22:50 5.4-1.0
2017-Feb-20 22:20 5.4-0.0
2017-Feb-20 21:50 020 2 5.4-0.0
2017-Feb-20 21:20 020 5 5.4-0.0
2017-Feb-20 20:50 030 4 5.4-0.0
2017-Feb-20 20:20 020 5 5.4-0.0
2017-Feb-20 19:50 020 2 5.4 1.0
2017-Feb-20 19:20 030 2 5.4 1.0
2017-Feb-20 18:50 030 2 5.4 1.0
2017-Feb-20 18:20 040 2 5.4 1.0
2017-Feb-20 17:50 5.4 2.0
2017-Feb-20 17:20 5.4 2.0
2017-Feb-20 16:50 5.4 3.0
2017-Feb-20 16:20 5.4 3.0
2017-Feb-20 15:50 5.4 3.0
2017-Feb-20 15:20 220 5 5.4 3.0
2017-Feb-20 14:50 5.4 3.0
2017-Feb-20 14:20 140 2 5.4 3.0
2017-Feb-20 13:50 5.4 3.0
2017-Feb-20 13:20 5.4 3.0
2017-Feb-20 12:50 100 2 5.4 3.0
2017-Feb-20 12:20 170 1 5.4 2.0
2017-Feb-20 11:50 200 2 5.4 2.0
2017-Feb-20 11:20 200 4 5.4 2.0
2017-Feb-20 10:50 180 2 5.4 2.0
2017-Feb-20 10:20 220 4 5.4 2.0
2017-Feb-20 09:50 200 6 5.4 2.0
2017-Feb-20 09:20 170 5 5.4 2.0
2017-Feb-20 08:50 180 4 5.4 2.0
2017-Feb-20 08:20 210 6 5.4 2.0
2017-Feb-20 07:50 200 6 5.4 2.0
2017-Feb-20 07:20 190 4 5.4 1.0
2017-Feb-20 06:50 220 5 5.4 1.0
2017-Feb-20 06:20 200 7 5.4 1.0
2017-Feb-20 05:50 210 6 5.4 1.0
2017-Feb-20 05:20 210 9 5.4 1.0
2017-Feb-20 04:50 200 7 5.4 1.0
2017-Feb-20 04:20 190 7 5.4 1.0
2017-Feb-20 03:50 200 6 5.4 2.0
2017-Feb-20 03:20 190 6 5.4 2.0
2017-Feb-20 02:50 210 6 5.4 3.0
2017-Feb-20 02:20 210 6 5.4 2.0
2017-Feb-20 01:50 210 7 5.4 3.0
2017-Feb-20 01:20 180 8 5.4 3.0
2017-Feb-20 00:50 170 6 5.4 3.0
2017-Feb-19 23:50 140 8 5.4 3.0
2017-Feb-19 23:20 150 6 5.4 3.0
2017-Feb-19 22:50 150 6 5.4 4.0
2017-Feb-19 22:20 180 12 5.4 4.0
2017-Feb-19 21:50 210 8 5.4 5.0
2017-Feb-19 21:20 200 6 5.4 4.0
2017-Feb-19 20:50 200 6 5.4 4.0
2017-Feb-19 20:20 180 7 5.4 3.0
2017-Feb-19 19:50 170 6 5.4 3.0
2017-Feb-19 19:20 190 6 5.4 3.0
2017-Feb-19 18:50 210 5 5.4 3.0
2017-Feb-19 18:20 170 5 5.4 3.0
2017-Feb-19 17:50 180 9 5.4 4.0
2017-Feb-19 17:20 180 9 5.4 5.0
2017-Feb-19 16:50 160 8 5.4 5.0
2017-Feb-19 16:20 190 6 5.4 4.0
2017-Feb-19 15:50 200 8 5.4 5.0
2017-Feb-19 15:20 190 9 5.4 6.0
2017-Feb-19 14:50 200 9 5.4 4.0
2017-Feb-19 14:20 190 7 5.4 4.0
2017-Feb-19 13:50 190 7 5.4 4.0
2017-Feb-19 12:50 190 12 5.4 6.0
2017-Feb-19 12:20 190 11 5.4 5.0
2017-Feb-19 11:50 150 2 5.4 4.0
2017-Feb-19 11:20 190 4 5.4 3.0
2017-Feb-19 10:50 210 6 5.4 3.0
2017-Feb-19 10:20 150 5 5.4 4.0